Location: Olda
(45.8833°N, 9.5500°E)
Time: 20:46:44
(UTC+00:00)

Cosmos 1943 Rocket - Pass Details

Date: 03 March 2021
Orbit: 811 x 844 km, 71.0° (Epoch: 13 April)

Event Time Altitude Azimuth Distance (km) Brightness Sun altitude
Rises 20:43:46 0° 338° (NNW) 3,414 6.0 -36.3°
Reaches altitude 10° 20:46:28 10° 348° (NNW) 2,475 5.1 -36.6°
Enters shadow 20:48:16 19° 360° (N) 1,914 4.3 -36.9°
